Ozark, AL

3:25 AM CST on November 18, 2017 (GMT -0600)
Cairns Army Air Field

Weather History for KOZR - September, 2014

Change the Weather History Date:

Friday, September 19, 2014

  Actual Average Record
Temperature  
Mean Temperature 79 °F -  
Max Temperature 90 °F 82 °F 96 °F (2010)
Min Temperature 68 °F 63 °F 59 °F (1996)
Cooling Degree Days 14    
Growing Degree Days 29 (Base 50)    
Moisture  
Dew Point 66 °F    
Average Humidity 70    
Maximum Humidity 92    
Minimum Humidity 40    
Precipitation  
Precipitation 0.00 in - - ()
Sea Level Pressure  
Sea Level Pressure 29.98 in    
Wind  
Wind Speed 6 mph (ENE)    
Max Wind Speed 16 mph    
Max Gust Speed 24 mph    
Visibility 10 miles    
Events Thunderstorm    
Averages and records for this station are not official NWS values.
T = Trace of Precipitation, MM = Missing Value Source: NWS Daily Summary

Daily Weather History Graph

Daily Weather History Graph

Search for Another Location

Airport or City:

Trip Planner

Search our weather history database for the weather conditions in past years. The results will help you decide how hot, cold, wet, or windy it might be!

Date:

Astronomy

Sep. 19, 2014 Rise Set
Actual Time 6:29 AM CDT 6:43 PM CDT
Civil Twilight 6:05 AM CDT 7:07 PM CDT
Nautical Twilight 5:36 AM CDT 7:35 PM CDT
Astronomical Twilight 5:08 AM CDT 8:04 PM CDT
Moon 2:26 AM CDT (9/19) 4:00 PM CDT (9/19)
Length of Visible Light 13h 02m
Length of Day
12h 13m
Waning Crescent, 18% of the Moon is Illuminated
Sep 19
Waning Crescent
Sep 24
New
Oct 1
First Quarter
Oct 8
Full
Oct 15
Last Quarter

Hourly Weather History & Observations

Time (CDT) Temp. Heat Index Dew Point Humidity Pressure Visibility Wind Dir Wind Speed Gust Speed Precip Events Conditions
12:58 AM 72.0 °F - 64.8 °F 78% 29.96 in 10.0 mi NNE 4.6 mph - N/A   Clear
1:58 AM 70.9 °F - 64.0 °F 79% 29.94 in 10.0 mi NNE 3.5 mph - N/A   Clear
2:58 AM 70.9 °F - 63.1 °F 76% 29.95 in 10.0 mi NNE 2.3 mph - N/A   Clear
3:58 AM 69.4 °F - 64.0 °F 83% 29.95 in 10.0 mi NE 2.3 mph - N/A   Clear
4:58 AM 68.4 °F - 64.9 °F 89% 29.96 in 10.0 mi ENE 5.8 mph - N/A   Clear
5:58 AM 68.7 °F - 65.1 °F 88% 29.97 in 10.0 mi ENE 2.3 mph - N/A   Partly Cloudy
6:58 AM 68.2 °F - 65.8 °F 92% 29.99 in 10.0 mi NE 4.6 mph - N/A   Partly Cloudy
7:58 AM 70.9 °F - 67.3 °F 88% 30.00 in 10.0 mi ENE 5.8 mph - N/A   Clear
8:58 AM 73.0 °F - 67.8 °F 84% 30.00 in 10.0 mi NE 5.8 mph - N/A   Clear
9:58 AM 79.2 °F - 69.1 °F 71% 30.02 in 10.0 mi East 9.2 mph - N/A   Clear
10:58 AM 82.6 °F 86.1 °F 69.3 °F 64% 30.02 in 10.0 mi ENE 10.4 mph - N/A   Clear
11:58 AM 85.8 °F 88.2 °F 66.4 °F 52% 30.01 in 10.0 mi ENE 12.7 mph - N/A   Clear
12:58 PM 88.7 °F 89.1 °F 62.4 °F 41% 29.99 in 10.0 mi East 12.7 mph 18.4 mph N/A   Clear
1:58 PM 90.1 °F 90.9 °F 62.8 °F 40% 29.97 in 10.0 mi East 10.4 mph - N/A   Clear
2:58 PM 90.9 °F 92.3 °F 64.4 °F 41% 29.95 in 10.0 mi ESE 11.5 mph 17.3 mph N/A   Partly Cloudy
3:58 PM 89.4 °F 90.5 °F 63.9 °F 42% 29.95 in 10.0 mi SE 8.1 mph - N/A   Clear
4:44 PM 87.8 °F 89.4 °F 64.4 °F 46% 29.95 in 10.0 mi East 8.1 mph - N/A Thunderstorm Thunderstorm
4:58 PM 87.3 °F 88.9 °F 64.9 °F 47% 29.96 in 10.0 mi North 15.0 mph - N/A Thunderstorm Thunderstorm
5:09 PM 80.6 °F 82.7 °F 66.2 °F 61% 29.97 in 10.0 mi North 16.1 mph 24.2 mph N/A   Scattered Clouds
5:58 PM 77.2 °F - 64.4 °F 65% 29.98 in 10.0 mi North 5.8 mph - N/A   Clear
6:58 PM 75.6 °F - 65.1 °F 70% 29.98 in 10.0 mi NE 10.4 mph - N/A   Clear
7:58 PM 73.2 °F - 66.9 °F 81% 30.00 in 10.0 mi ENE 5.8 mph - N/A   Clear
8:58 PM 73.6 °F - 66.9 °F 80% 30.03 in 10.0 mi ESE 4.6 mph - N/A   Partly Cloudy
9:58 PM 71.4 °F - 66.9 °F 86% 30.04 in 10.0 mi East 2.3 mph - N/A   Clear
10:58 PM 70.9 °F - 66.9 °F 87% 30.04 in 10.0 mi NNE 3.5 mph - N/A   Partly Cloudy
11:58 PM 70.2 °F - 66.7 °F 89% 30.03 in 10.0 mi NNE 3.5 mph - N/A   Clear